TimeICT,TemperatureF,Dew PointF,Humidity,Sea Level PressureIn,VisibilityMPH,Wind Direction,Wind SpeedMPH,Gust SpeedMPH,PrecipitationIn,Events,Conditions,WindDirDegrees,DateUTC
12:00 AM,77.0,75.2,94,29.80,5.6,East,5.8,-,N/A,,Mostly Cloudy,90,2013-11-07 17:00:00
12:30 AM,77.0,75.2,94,29.80,5.6,ENE,5.8,-,N/A,,Mostly Cloudy,70,2013-11-07 17:30:00
1:00 AM,77.0,75.2,94,29.80,5.6,NE,3.5,-,N/A,,Mostly Cloudy,50,2013-11-07 18:00:00
7:00 AM,77.0,75.2,94,29.83,6.2,NE,3.5,-,N/A,,Scattered Clouds,50,2013-11-08 00:00:00
7:30 AM,77.0,75.2,94,29.83,6.2,ENE,3.5,-,N/A,,Scattered Clouds,70,2013-11-08 00:30:00
8:00 AM,78.8,75.2,89,29.86,6.2,NE,3.5,-,N/A,,Scattered Clouds,40,2013-11-08 01:00:00
8:30 AM,80.6,75.2,84,29.86,6.2,ENE,6.9,-,N/A,,Scattered Clouds,60,2013-11-08 01:30:00
9:00 AM,80.6,75.2,84,29.86,6.2,East,6.9,-,N/A,,Scattered Clouds,90,2013-11-08 02:00:00
9:30 AM,82.4,73.4,74,29.86,6.2,East,6.9,-,N/A,,Scattered Clouds,90,2013-11-08 02:30:00
10:00 AM,82.4,75.2,79,29.86,6.2,ESE,9.2,-,N/A,,Scattered Clouds,120,2013-11-08 03:00:00
10:30 AM,84.2,73.4,70,29.83,6.2,East,11.5,-,N/A,,Scattered Clouds,90,2013-11-08 03:30:00
11:30 AM,84.2,73.4,70,29.83,6.2,East,9.2,-,N/A,,Scattered Clouds,100,2013-11-08 04:30:00
12:00 PM,86.0,73.4,66,29.80,6.2,ENE,11.5,-,N/A,,Scattered Clouds,70,2013-11-08 05:00:00
12:30 PM,86.0,73.4,66,29.80,6.2,East,11.5,-,N/A,,Scattered Clouds,80,2013-11-08 05:30:00
1:00 PM,87.8,73.4,62,29.77,6.2,East,8.1,-,N/A,,Scattered Clouds,100,2013-11-08 06:00:00
1:30 PM,87.8,71.6,58,29.77,6.2,East,11.5,-,N/A,,Scattered Clouds,100,2013-11-08 06:30:00
2:00 PM,87.8,71.6,58,29.74,6.2,East,10.4,-,N/A,,Scattered Clouds,80,2013-11-08 07:00:00
2:30 PM,87.8,71.6,58,29.74,6.2,East,10.4,-,N/A,,Scattered Clouds,100,2013-11-08 07:30:00
3:00 PM,89.6,71.6,55,29.71,6.2,ESE,10.4,-,N/A,,Scattered Clouds,120,2013-11-08 08:00:00
3:30 PM,89.6,71.6,55,29.71,6.2,ESE,8.1,-,N/A,,Partly Cloudy,120,2013-11-08 08:30:00
4:00 PM,87.8,71.6,58,29.74,6.2,SW,4.6,-,N/A,,Partly Cloudy,220,2013-11-08 09:00:00
4:30 PM,86.0,75.2,70,29.74,6.2,SW,4.6,-,N/A,,Partly Cloudy,230,2013-11-08 09:30:00
5:00 PM,86.0,75.2,70,29.74,6.2,Variable,3.5,-,N/A,,Partly Cloudy,0,2013-11-08 10:00:00
5:30 PM,84.2,77.0,79,29.74,6.2,WSW,4.6,-,N/A,,Partly Cloudy,240,2013-11-08 10:30:00
6:00 PM,82.4,77.0,84,29.74,6.2,Variable,2.3,-,N/A,,Partly Cloudy,0,2013-11-08 11:00:00
6:30 PM,82.4,77.0,84,29.77,5.6,Variable,2.3,-,N/A,,Partly Cloudy,0,2013-11-08 11:30:00
7:00 PM,82.4,77.0,84,29.77,5.6,Calm,Calm,-,N/A,,Partly Cloudy,0,2013-11-08 12:00:00
7:30 PM,82.4,78.8,89,29.80,5.6,Variable,2.3,-,N/A,,Partly Cloudy,0,2013-11-08 12:30:00
9:00 PM,80.6,78.8,94,29.80,5.6,Variable,1.2,-,N/A,,Partly Cloudy,0,2013-11-08 14:00:00
9:30 PM,80.6,78.8,94,29.80,5.6,Variable,3.5,-,N/A,,Partly Cloudy,0,2013-11-08 14:30:00
10:00 PM,80.6,78.8,94,29.80,5.6,Variable,2.3,-,N/A,,Partly Cloudy,0,2013-11-08 15:00:00
10:30 PM,80.6,78.8,94,29.77,5.6,Variable,1.2,-,N/A,,Partly Cloudy,0,2013-11-08 15:30:00
11:00 PM,80.6,77.0,89,29.77,5.6,Variable,1.2,-,N/A,,Partly Cloudy,0,2013-11-08 16:00:00
11:30 PM,80.6,77.0,89,29.77,5.6,Calm,Calm,-,N/A,,Partly Cloudy,0,2013-11-08 16:30:00